Location: Newark
(52.1031°N, 9.3600°E)
Time: 02:39:39
(UTC+00:00)

nSIGHT-1 - Pass Details

Date: 20 December 2019
Orbit: 314 x 316 km, 51.6° (Epoch: 23 January)

Event Time Altitude Azimuth Distance (km) Brightness Sun altitude
Exits shadow 05:50:29 32° 263° (W) 578 ? -13.8°
Maximum altitude 05:51:31 61° 194° (SSW) 364 ? -13.7°
Drops below altitude 10° 05:54:11 10° 112° (ESE) 1,214 ? -13.3°
Sets 05:56:09 0° 109° (ESE) 2,041 ? -13.0°
